Flag Weather past 2 weeks in Radom, Poland

Now
27 °F

Light snow. Low clouds.


Feels Like: 21 °F
Forecast: 24 / 28 °F
Wind: 5 mph from East

Location: Kielce

Current Time: Nov 28, 2014 at 1:37:40 PM

Latest Report: Nov 28, 2014 at 1:00 PM


Visibility: 5 mi

Pressure: 30.26 "Hg

Humidity: 90%

Dew point: 24 °F

Location of RadomLocation

Historic Weather in Radom — Graph

°F

Radom temperature yesterday

Maximum temperature yesterday: 34 °F (at 12:00 AM)
Minimum temperature yesterday: 28 °F (at 11:00 PM)
Average temperature yesterday: 31 °F

Past Weeks' High & Low Weather Summary

 TemperatureHumidityPressure
High48 °F (Nov 13, 3:00 PM)100% (Nov 15, 12:00 AM)30.51 "Hg (Nov 15, 12:00 AM)
Low24 °F (Nov 28, 3:00 AM)69% (Nov 23, 1:00 PM)29.85 "Hg (Nov 16, 2:00 PM)
Average37 °F94%30.19 "Hg
* Reported Nov 13 12:00 Noon — Nov 28 12:00 Noon, Radom, Weather by CustomWeather, © 2014

Note: Actual official high and low records may vary slightly from our data, if they occured in-between our weather recording intervals... More about our weather records

Advertising

Radom weather history for previous 24 hours

 ConditionsComfort  
Time TempWeatherWind HumidityBarometerVisibility
12:00 PM
Nov 28
26 °FFog.6 mph91%30.27 "Hg4 mi
11:00 AM26 °FFog.5 mph91%30.26 "Hg4 mi
10:00 AM25 °FFog.3 mph92%30.27 "Hg4 mi
9:00 AM25 °FFog.3 mph93%30.27 "Hg3 mi
8:00 AM24 °FFog.3 mph92%30.25 "Hg5 mi
7:00 AM24 °FFog.2 mph90%30.24 "Hg5 mi
6:00 AM24 °FFog.5 mph88%30.23 "Hg6 mi
5:00 AM25 °FFog.3 mph90%30.22 "Hg6 mi
4:00 AM24 °FFog.3 mph92%30.22 "Hg5 mi
3:00 AM24 °FFog.2 mph91%30.22 "Hg5 mi
2:00 AM25 °FFog.2 mph90%30.22 "Hg5 mi
1:00 AM26 °FFog.2 mph88%30.21 "Hg5 mi
12:00 AM27 °FFog.5 mph88%30.21 "Hg4 mi
11:00 PM
Nov 27
28 °FFog.3 mph89%30.21 "Hg5 mi
10:00 PM29 °FFog.3 mph88%30.21 "Hg5 mi
9:00 PM30 °FFog.3 mph87%30.21 "Hg5 mi
8:00 PM31 °FFog.3 mph87%30.20 "Hg4 mi
7:00 PM31 °FFog.3 mph90%30.19 "Hg3 mi
6:00 PM31 °FFog.3 mph92%30.19 "Hg2 mi
5:00 PM31 °FFog.3 mph94%30.19 "Hg1 mi
4:00 PM30 °FFog.5 mph95%30.20 "Hg2 mi
3:00 PM30 °FFog.3 mph93%30.20 "Hg2 mi
2:00 PM31 °FFog.3 mph91%30.20 "Hg3 mi
1:00 PM31 °FFog.2 mph91%30.21 "Hg5 mi
Weather by CustomWeather, © 2014

See weather overviewHow to use our weather pages